Flag for U.S.A. Weather past 2 weeks in Honolulu, Hawaii, U.S.A.

Now
76 °F

Passing clouds.


Feels Like: 78 °F
Forecast: 71 / 78 °F
Wind: 13 mph from Northeast

Location: Honolulu International Airport

Current Time: Dec 17, 2014 at 8:18:43 PM

Latest Report: Dec 17, 2014 at 7:53 PM


Visibility: 10 mi

Pressure: 30.13 "Hg

Humidity: 69%

Dew point: 65 °F

Location of HonoluluLocation

Historic Weather in Honolulu — Graph

°F

Honolulu temperature yesterday

Maximum temperature yesterday: 82 °F (at 12:53 PM)
Minimum temperature yesterday: 72 °F (at 4:53 AM)
Average temperature yesterday: 75 °F

Past Weeks' High & Low Weather Summary

 TemperatureHumidityPressure
High85 °F (Dec 10, 11:53 AM)100% (Dec 3, 9:53 AM)30.18 "Hg (Dec 3, 9:53 AM)
Low65 °F (Dec 7, 6:53 AM)45% (Dec 6, 11:53 AM)29.92 "Hg (Dec 3, 2:53 PM)
Average74 °F72%30.05 "Hg
* Reported Dec 2 6:53 PM — Dec 17 6:53 PM, Honolulu, Weather by CustomWeather, © 2014

Note: Actual official high and low records may vary slightly from our data, if they occured in-between our weather recording intervals... More about our weather records

Advertising

Honolulu weather history for previous 24 hours

 ConditionsComfort  
Time TempWeatherWind HumidityBarometerVisibility
6:53 PM
Dec 17
76 °FPassing clouds.15 mph72%30.11 "Hg10 mi
5:53 PM77 °FPassing clouds.12 mph69%30.10 "Hg10 mi
4:53 PM79 °FBroken clouds.21 mph65%30.09 "Hg10 mi
3:53 PM81 °FPartly sunny.16 mph60%30.07 "Hg10 mi
2:53 PM82 °FBroken clouds.18 mph58%30.07 "Hg10 mi
1:53 PM82 °FScattered clouds.17 mph56%30.08 "Hg10 mi
12:53 PM81 °FScattered clouds.13 mph56%30.11 "Hg10 mi
11:53 AM82 °FBroken clouds.12 mph58%30.14 "Hg10 mi
10:53 AM80 °FBroken clouds.14 mph62%30.15 "Hg10 mi
9:53 AM79 °FBroken clouds.9 mph67%30.16 "Hg10 mi
8:53 AM78 °FScattered clouds.6 mph66%30.16 "Hg10 mi
7:53 AM73 °FScattered clouds.3 mph79%30.16 "Hg10 mi
6:53 AM73 °FPassing clouds.7 mph76%30.14 "Hg10 mi
5:53 AM70 °FPassing clouds.3 mph84%30.14 "Hg10 mi
4:53 AM72 °FPassing clouds.No wind78%30.11 "Hg10 mi
3:53 AM72 °FPassing clouds.5 mph81%30.10 "Hg10 mi
2:53 AM72 °FPassing clouds.6 mph81%30.10 "Hg10 mi
1:53 AM72 °FPassing clouds.3 mph84%30.11 "Hg10 mi
12:53 AM73 °FPartly cloudy.7 mph81%30.13 "Hg10 mi
11:53 PM
Dec 16
72 °FPartly cloudy.7 mph87%30.13 "Hg10 mi
10:53 PM72 °FPartly cloudy.6 mph91%30.14 "Hg10 mi
9:53 PM74 °FPartly cloudy.7 mph79%30.13 "Hg10 mi
8:53 PM74 °FPartly cloudy.6 mph79%30.12 "Hg10 mi
Weather by CustomWeather, © 2014

See weather overviewHow to use our weather pages